South Pass, WY

12:32 AM MDT on March 28, 2017 (GMT -0600)
South Pass

Weather History for KFWZ - August, 2013

Change the Weather History Date:

Saturday, August 24, 2013

  Actual Average (KLND) Record (KLND)
Temperature  
Mean Temperature 60 °F -  
Max Temperature 71 °F 83 °F 96 °F (2011)
Min Temperature 50 °F 52 °F 30 °F (1910)
Degree Days  
Heating Degree Days 4    
Growing Degree Days 10 (Base 50)    
Moisture  
Dew Point 41 °F    
Average Humidity 54    
Maximum Humidity 88    
Minimum Humidity 23    
Precipitation  
Precipitation 0.00 in - - ()
Sea Level Pressure  
Sea Level Pressure 30.22 in    
Wind  
Wind Speed 11 mph (WSW)    
Max Wind Speed 17 mph    
Max Gust Speed 26 mph    
Visibility 10 miles    
Events Rain    
Averages and records for this station are not official NWS values.
T = Trace of Precipitation, MM = Missing Value Source: NWS Daily Summary

Daily Weather History Graph

Daily Weather History Graph

Search for Another Location

Airport or City:

Trip Planner

Search our weather history database for the weather conditions in past years. The results will help you decide how hot, cold, wet, or windy it might be!

Date:

Astronomy

Aug. 24, 2013 Rise Set
Actual Time 6:31 AM MDT 8:02 PM MDT
Civil Twilight 6:02 AM MDT 8:31 PM MDT
Nautical Twilight 5:26 AM MDT 9:06 PM MDT
Astronomical Twilight 4:48 AM MDT 9:44 PM MDT
Moon 9:51 PM MDT (8/24) 10:41 AM MDT (8/24)
Length of Visible Light 14h 29m
Length of Day
13h 30m
Waning Gibbous, 84% of the Moon is Illuminated
Aug 24
Waning Gibbous
Aug 28
Last Quarter
Sep 5
New
Sep 12
First Quarter
Sep 19
Full

Hourly Weather History & Observations

Time (MDT) Temp. Dew Point Humidity Pressure Visibility Wind Dir Wind Speed Gust Speed Precip Events Conditions
12:15 AM 57.2 °F 42.8 °F 59% 30.18 in 10.0 mi WSW 8.1 mph - N/A   Scattered Clouds
12:35 AM 57.2 °F 42.8 °F 59% 30.18 in 10.0 mi WSW 8.1 mph - N/A   Mostly Cloudy
12:55 AM 57.2 °F 42.8 °F 59% 30.18 in 10.0 mi WSW 8.1 mph - N/A   Overcast
1:15 AM 55.4 °F 44.6 °F 67% 30.18 in 10.0 mi SW 10.4 mph - N/A   Mostly Cloudy
1:35 AM 53.6 °F 48.2 °F 82% 30.17 in 10.0 mi WSW 8.1 mph - N/A Rain Light Rain
1:55 AM 53.6 °F 48.2 °F 82% 30.18 in 10.0 mi SW 9.2 mph - N/A   Overcast
2:15 AM 51.8 °F 48.2 °F 88% 30.17 in 10.0 mi WSW 10.4 mph - N/A   Overcast
2:35 AM 51.8 °F 48.2 °F 88% 30.16 in 10.0 mi WSW 11.5 mph - N/A   Mostly Cloudy
2:55 AM 51.8 °F 48.2 °F 88% 30.16 in 10.0 mi West 15.0 mph 24.2 mph N/A   Light Drizzle
3:15 AM 51.8 °F 48.2 °F 88% 30.16 in 10.0 mi West 12.7 mph 18.4 mph N/A   Overcast
3:35 AM 51.8 °F 46.4 °F 82% 30.16 in 10.0 mi WSW 15.0 mph 20.7 mph N/A   Mostly Cloudy
3:55 AM 51.8 °F 46.4 °F 82% 30.16 in 10.0 mi WSW 13.8 mph 19.6 mph N/A   Overcast
4:15 AM 51.8 °F 46.4 °F 82% 30.16 in 10.0 mi WSW 13.8 mph - N/A   Overcast
4:35 AM 51.8 °F 46.4 °F 82% 30.16 in 10.0 mi WSW 11.5 mph - N/A   Overcast
4:55 AM 51.8 °F 46.4 °F 82% 30.16 in 10.0 mi WSW 13.8 mph 19.6 mph N/A   Overcast
5:15 AM 51.8 °F 44.6 °F 76% 30.16 in 10.0 mi West 12.7 mph - N/A   Overcast
5:35 AM 51.8 °F 44.6 °F 76% 30.16 in 10.0 mi West 12.7 mph - N/A   Overcast
5:55 AM 53.6 °F 44.6 °F 72% 30.16 in 10.0 mi West 12.7 mph 16.1 mph N/A   Overcast
6:15 AM 53.6 °F 44.6 °F 72% 30.16 in 10.0 mi WSW 11.5 mph - N/A   Overcast
6:35 AM 51.8 °F 44.6 °F 76% 30.17 in 10.0 mi WSW 15.0 mph 18.4 mph N/A   Overcast
6:55 AM 50.0 °F 46.4 °F 87% 30.17 in 5.0 mi WSW 16.1 mph 24.2 mph N/A   Overcast
7:15 AM 50.0 °F 46.4 °F 87% 30.18 in 10.0 mi West 12.7 mph - N/A   Overcast
7:35 AM 50.0 °F 46.4 °F 87% 30.20 in 10.0 mi West 10.4 mph 16.1 mph N/A   Overcast
7:55 AM 51.8 °F 46.4 °F 82% 30.20 in 10.0 mi West 13.8 mph - N/A   Overcast
8:15 AM 51.8 °F 46.4 °F 82% 30.20 in 10.0 mi WSW 15.0 mph - N/A   Mostly Cloudy
8:35 AM 51.8 °F 46.4 °F 82% 30.21 in 10.0 mi WSW 15.0 mph 18.4 mph N/A   Clear
8:55 AM 51.8 °F 46.4 °F 82% 30.21 in 10.0 mi WSW 13.8 mph - N/A   Clear
9:15 AM 53.6 °F 44.6 °F 72% 30.21 in 10.0 mi WSW 12.7 mph - N/A   Clear
9:35 AM 55.4 °F 46.4 °F 72% 30.21 in 10.0 mi WSW 12.7 mph - N/A   Clear
9:55 AM 57.2 °F 46.4 °F 67% 30.21 in 10.0 mi West 13.8 mph 18.4 mph N/A   Clear
10:15 AM 59.0 °F 44.6 °F 59% 30.22 in 10.0 mi WSW 15.0 mph - N/A   Clear
10:35 AM 60.8 °F 46.4 °F 59% 30.23 in 10.0 mi WSW 16.1 mph 21.9 mph N/A   Clear
10:55 AM 60.8 °F 44.6 °F 55% 30.23 in 10.0 mi WSW 17.3 mph 21.9 mph N/A   Clear
11:15 AM 62.6 °F 42.8 °F 48% 30.24 in 10.0 mi WSW 16.1 mph 24.2 mph N/A   Clear
11:35 AM 62.6 °F 41.0 °F 45% 30.25 in 10.0 mi West 12.7 mph 23.0 mph N/A   Clear
11:55 AM 64.4 °F 39.2 °F 40% 30.25 in 10.0 mi SW 12.7 mph 19.6 mph N/A   Clear
12:15 PM 64.4 °F 39.2 °F 40% 30.25 in 10.0 mi West 11.5 mph 16.1 mph N/A   Clear
12:35 PM 64.4 °F 37.4 °F 37% 30.25 in 10.0 mi WSW 16.1 mph 23.0 mph N/A   Clear
12:55 PM 66.2 °F 35.6 °F 32% 30.25 in 10.0 mi West 12.7 mph 23.0 mph N/A   Clear
1:15 PM 66.2 °F 37.4 °F 35% 30.25 in 10.0 mi West 11.5 mph 19.6 mph N/A   Clear
1:35 PM 68.0 °F 37.4 °F 33% 30.24 in 10.0 mi West 15.0 mph 21.9 mph N/A   Clear
1:55 PM 68.0 °F 37.4 °F 33% 30.24 in 10.0 mi WSW 13.8 mph 21.9 mph N/A   Clear
2:15 PM 69.8 °F 33.8 °F 27% 30.24 in 10.0 mi WSW 13.8 mph 18.4 mph N/A   Clear
2:35 PM 69.8 °F 35.6 °F 28% 30.24 in 10.0 mi WSW 13.8 mph - N/A   Clear
2:55 PM 69.8 °F 33.8 °F 27% 30.23 in 10.0 mi WSW 13.8 mph 20.7 mph N/A   Clear
3:15 PM 69.8 °F 33.8 °F 27% 30.23 in 10.0 mi WSW 11.5 mph 19.6 mph N/A   Clear
3:35 PM 71.6 °F 32.0 °F 23% 30.23 in 10.0 mi WSW 16.1 mph 20.7 mph N/A   Clear
3:55 PM 69.8 °F 32.0 °F 25% 30.23 in 10.0 mi WSW 13.8 mph 20.7 mph N/A   Clear
4:15 PM 69.8 °F 32.0 °F 25% 30.23 in 10.0 mi WSW 8.1 mph - N/A   Clear
4:35 PM 69.8 °F 32.0 °F 25% 30.22 in 10.0 mi West 10.4 mph 16.1 mph N/A   Clear
4:55 PM 69.8 °F 30.2 °F 23% 30.23 in 10.0 mi WSW 12.7 mph 16.1 mph N/A   Clear
5:15 PM 69.8 °F 32.0 °F 25% 30.23 in 10.0 mi West 11.5 mph 18.4 mph N/A   Clear
5:35 PM 68.0 °F 33.8 °F 28% 30.23 in 10.0 mi WSW 10.4 mph - N/A   Scattered Clouds
5:55 PM 68.0 °F 33.8 °F 28% 30.23 in 10.0 mi SSW 3.5 mph 17.3 mph N/A   Mostly Cloudy
6:15 PM 68.0 °F 33.8 °F 28% 30.23 in 10.0 mi WSW 8.1 mph - N/A   Mostly Cloudy
6:35 PM 66.2 °F 33.8 °F 30% 30.23 in 10.0 mi SW 5.8 mph - N/A   Overcast
6:55 PM 64.4 °F 35.6 °F 34% 30.23 in 10.0 mi SSW 10.4 mph 23.0 mph N/A   Overcast
7:15 PM 62.6 °F 39.2 °F 42% 30.25 in 10.0 mi SSW 8.1 mph 26.5 mph N/A Rain Light Rain
7:35 PM 60.8 °F 39.2 °F 45% 30.25 in 10.0 mi West 9.2 mph 24.2 mph N/A Rain Light Rain
7:55 PM 60.8 °F 39.2 °F 45% 30.25 in 10.0 mi West 10.4 mph - N/A   Scattered Clouds
8:15 PM 59.0 °F 35.6 °F 42% 30.25 in 10.0 mi West 11.5 mph - N/A   Clear
8:35 PM 60.8 °F 35.6 °F 39% 30.25 in 10.0 mi West 4.6 mph - N/A   Clear
8:55 PM 60.8 °F 35.6 °F 39% 30.26 in 10.0 mi WSW 5.8 mph - N/A   Scattered Clouds
9:15 PM 60.8 °F 37.4 °F 42% 30.27 in 10.0 mi WSW 8.1 mph - N/A   Scattered Clouds
9:35 PM 60.8 °F 37.4 °F 42% 30.27 in 10.0 mi WSW 8.1 mph - N/A   Clear
9:55 PM 60.8 °F 37.4 °F 42% 30.27 in 10.0 mi WSW 9.2 mph - N/A   Scattered Clouds
10:15 PM 59.0 °F 37.4 °F 45% 30.27 in 10.0 mi WSW 6.9 mph - N/A   Scattered Clouds
10:35 PM 59.0 °F 37.4 °F 45% 30.27 in 10.0 mi West 8.1 mph - N/A   Clear
10:55 PM 60.8 °F 37.4 °F 42% 30.27 in 10.0 mi WSW 9.2 mph - N/A   Clear
11:15 PM 59.0 °F 37.4 °F 45% 30.27 in 10.0 mi West 12.7 mph 17.3 mph N/A   Clear
11:35 PM 59.0 °F 37.4 °F 45% 30.27 in 10.0 mi West 9.2 mph - N/A   Clear
11:55 PM 59.0 °F 37.4 °F 45% 30.26 in 10.0 mi West 8.1 mph 16.1 mph N/A   Clear